Location: Mauries
(43.6188°N, 0.3322°W)
Time: 19:02:43
(UTC+00:00)

Cosmos 1484 Rocket - Pass Details

Date: 14 January 2026
Orbit: 439 x 467 km, 97.6° (Epoch: 11 February)

Event Time Altitude Azimuth Distance (km) Brightness Sun altitude
Rises 05:46:28 0° 15° (NNE) 2,450 6.2 -18.7°
Reaches altitude 10° 05:48:31 10° 19° (NNE) 1,579 5.2 -18.3°
Maximum altitude 05:51:52 62° 101° (ESE) 509 2.9 -17.7°
Drops below altitude 10° 05:55:13 10° 183° (S) 1,581 5.3 -17.2°
Sets 05:57:16 0° 187° (S) 2,455 6.2 -16.8°
